[[{"header":{"parameterUnit":"m.s-1","parameterCategory":1,"la1":30.2991,"la2":30.254,"lo1":-89.0895,"lo2":-89.0444,"dy":0.0017,"dx":0.0017,"nx":28,"ny":28,"refTime":"2024-02-19T09:00:00:Z","depth":0,"parameterNumber":2,"parameterNumberName":"U-component_of_WINDS"},"data":[0,0,0,0,0,0,0,0,0,0,0,0,0,0,0,0,0,0,0,0,0,0,0,0,0,0,0,0,0,0,0,0,0,0,0,0,0,0,0,0,0,0,0,0,0,0,0,0,0,0,0,0,0,0,0,0,0,0,1.7916,1.7917,0,1.7996,1.7997,1.7998,1.8011,1.801,1.801,1.8009,1.8089,1.8091,1.8094,0,0,0,0,0,0,0,0,0,0,0,0,0,1.777,1.7772,1.7916,1.7917,1.7918,1.7996,1.7997,1.7998,1.8011,1.801,1.801,1.8009,1.8088,1.8091,1.8094,0,0,0,0,0,0,0,0,0,0,0,0,0,1.784,1.7773,1.7916,1.7934,1.7936,1.7996,1.7997,1.7999,1.8011,1.801,1.8009,1.8008,1.8087,1.8091,1.8095,1.8141,0,0,1.8107,1.8109,0,0,0,0,0,0,0,0,1.7836,1.7845,1.793,1.7933,1.7936,1.7993,1.7975,1.8046,1.8012,1.7983,1.8009,1.8008,1.8057,1.8064,1.8081,1.8145,1.8148,1.8108,1.811,1.8112,1.8113,0,0,0,0,0,0,0,1.7831,1.7842,1.7948,1.7931,1.7935,1.7937,1.7945,1.7988,1.8025,1.7985,1.7986,1.7996,1.8059,1.8077,1.8083,1.8149,1.8108,1.8111,1.8114,1.8115,1.8253,1.8254,0,0,0,0,0,0,1.7823,1.7838,1.7945,1.795,1.7882,1.794,1.795,1.7975,1.8024,1.8031,1.7997,1.7996,1.807,1.8078,1.8086,1.8142,1.8112,1.8116,1.8118,1.8252,1.8253,1.8255,0,0,0,0,0,0,1.782,1.7833,1.7942,1.7894,1.7908,1.7944,1.7972,1.7978,1.7996,1.8033,1.8039,1.8009,1.807,1.808,1.8127,1.8145,1.8118,1.8121,1.825,1.8252,1.8254,1.8255,0,0,0,0,0,0,1.7816,1.7832,1.7851,1.7895,1.7911,1.7983,1.7973,1.798,1.8004,1.8004,1.8046,1.8052,1.807,1.8121,1.8131,1.815,1.8125,1.8249,1.8251,1.8253,1.8253,1.8257,1.8259,0,0,0,0,0,1.7811,1.7847,1.7851,1.7864,1.7936,1.7984,1.7993,1.8013,1.8005,1.8023,1.8047,1.8051,1.8141,1.8125,1.8137,1.8158,1.8248,1.8251,1.8253,1.8252,1.8256,1.8259,0,0,0,0,0,0,1.7804,1.7854,1.7859,1.7911,1.7943,1.7986,1.801,1.8017,1.8051,1.805,1.8072,1.8082,1.8127,1.8147,1.8129,1.8204,1.8194,1.8199,1.8189,1.8193,1.8196,1.8189,1.8128,0,0,0,0,0,1.7809,1.7845,1.7886,1.7928,1.7944,1.7974,1.7996,1.8009,1.8043,1.8056,1.8083,1.8115,1.815,1.8173,1.8208,1.8257,1.8265,1.8277,1.8279,1.8282,1.8285,1.8311,1.8315,1.8263,1.8263,1.8263,0,0,1.7818,1.785,1.7872,1.7928,1.7954,1.7989,1.7986,1.8024,1.805,1.8062,1.8107,1.8128,1.8165,1.8213,1.8235,1.8231,1.8302,1.8285,1.8286,1.8289,1.8314,1.8319,1.8323,1.8265,1.8265,1.8264,0,0,1.7854,1.7883,1.792,1.7947,1.7987,1.8007,1.8015,1.8057,1.8072,1.8118,1.8127,1.8158,1.8219,1.8244,1.8265,1.8309,1.8313,1.832,1.8334,1.8359,1.8363,1.8366,1.838,1.8385,1.8324,1.8324,1.8324,0,1.7861,1.7916,1.7938,1.7976,1.7999,1.8012,1.8049,1.8074,1.8123,1.8138,1.8133,1.8209,1.8235,1.8287,1.8298,1.8315,1.8324,1.8314,1.8361,1.8365,1.8368,1.8382,1.8387,1.8324,1.8324,1.8324,1.8324,0,1.7921,1.7959,1.7984,1.8032,1.8058,1.8096,1.8122,1.8146,1.8156,1.8176,1.8222,1.8253,1.8294,1.8307,1.8318,1.8361,1.8357,1.8356,1.8346,1.8373,1.8386,1.8392,1.8325,1.8325,1.8324,1.8324,0,0,1.7954,1.8014,1.8022,1.8043,1.8088,1.8117,1.8154,1.8194,1.8213,1.8247,1.8277,1.8328,1.8327,1.835,1.8364,1.8385,1.8416,1.8382,1.8383,1.8385,1.8463,1.8463,1.8468,1.842,1.8421,1.8422,1.846,0,1.7994,1.8061,1.8082,1.8137,1.8171,1.8184,1.8216,1.8246,1.8265,1.8296,1.8317,1.8352,1.8349,1.8363,1.8385,1.8407,1.8432,1.8405,1.8446,1.8447,1.8435,1.8475,1.8475,1.8509,1.8465,1.8466,1.8467,0,1.8049,1.8083,1.8143,1.8182,1.8197,1.8225,1.8263,1.8293,1.8327,1.8339,1.8365,1.8376,1.8413,1.8402,1.8453,1.8434,1.8452,1.8466,1.8468,1.8471,1.8457,1.8478,1.8521,1.8526,1.8475,1.8474,1.8474,0,1.8065,1.8126,1.8169,1.8187,1.8234,1.8253,1.8274,1.8307,1.8329,1.8362,1.8376,1.8413,1.8432,1.8459,1.848,1.847,1.8528,1.8519,1.8537,1.8537,1.8548,1.8546,1.8593,1.8562,1.8562,1.8562,1.8562,0,1.8105,1.8141,1.8176,1.8202,1.8242,1.8264,1.8302,1.8323,1.8352,1.8381,1.8395,1.8421,1.8447,1.8477,1.8493,1.8531,1.8541,1.855,1.8554,1.8548,1.8547,1.8559,1.8557,1.8563,1.8563,1.8563,1.8563,0,1.8129,1.8155,1.8202,1.8243,1.8254,1.8281,1.8315,1.834,1.836,1.8397,1.8407,1.8437,1.8473,1.8496,1.8542,1.8552,1.8594,1.8597,1.8582,1.8584,1.86,1.8598,1.8655,1.8662,1.8628,1.8629,1.8629,0,1.8153,1.818,1.8224,1.8245,1.8266,1.8299,1.8322,1.8345,1.8369,1.8409,1.8428,1.8465,1.8496,1.8552,1.8577,1.8612,1.8615,1.8633,1.862,1.8613,1.8613,1.8611,1.8613,1.8634,1.8635,1.8635,1.8635,0,1.8191,1.8202,1.8235,1.8273,1.83,1.833,1.836,1.8376,1.8404,1.8429,1.8466,1.849,1.8537,1.8572,1.8609,1.8629,1.8636,1.8639,1.8645,1.8638,1.8628,1.8632,1.8586,1.8637,1.8637,1.8637,1.8637,1.8637,1.8214,1.8238,1.8273,1.8309,1.8334,1.8362,1.8387,1.841,1.8441,1.8481,1.8493,1.8531,1.8563,1.8613,1.8633,1.8662,1.866,1.8669,1.8671,1.8672,1.8672,1.8625,1.8669,1.8669,1.8669,1.8669,1.8669,0,1.8251,1.8274,1.8307,1.8349,1.8377,1.8383,1.8416,1.8439,1.8472,1.8502,1.8532,1.8573,1.8608,1.8636,1.8671,1.8689,1.8693,1.8697,1.8695,1.8699,1.8673,1.8663,1.8693,1.8693,1.8693,1.8693,1.8693,1.8693,1.8274,1.8315,1.833,1.8383,1.8405,1.8443,1.8461,1.8486,1.851,1.8556,1.8585,1.8604,1.8632,1.8669,1.87,1.8708,1.8719,1.8722,1.873,1.8704,1.8701,1.8699,1.869,1.8725,1.8725,1.8754,1.8755,1.8755]},{"header":{"parameterUnit":"m.s-1","parameterCategory":1,"la1":30.2991,"la2":30.254,"lo1":-89.0895,"lo2":-89.0444,"dy":0.0017,"dx":0.0017,"nx":28,"ny":28,"refTime":"2024-02-19T09:00:00:Z","depth":0,"parameterNumber":3,"parameterNumberName":"V-component_of_WINDS"},"data":[0,0,0,0,0,0,0,0,0,0,0,0,0,0,0,0,0,0,0,0,0,0,0,0,0,0,0,0,0,0,0,0,0,0,0,0,0,0,0,0,0,0,0,0,0,0,0,0,0,0,0,0,0,0,0,0,0,0,2.2524,2.2524,0,2.2488,2.2488,2.2487,2.2441,2.2441,2.244,2.2439,2.2401,2.2401,2.2401,0,0,0,0,0,0,0,0,0,0,0,0,0,2.2552,2.2552,2.2524,2.2524,2.2523,2.2488,2.2488,2.2487,2.2441,2.2441,2.244,2.2439,2.2401,2.2401,2.2401,0,0,0,0,0,0,0,0,0,0,0,0,0,2.2531,2.2552,2.2524,2.2496,2.2494,2.2488,2.2488,2.2487,2.2442,2.2441,2.2439,2.2438,2.2401,2.2401,2.2401,2.242,0,0,2.2399,2.2399,0,0,0,0,0,0,0,0,2.2532,2.253,2.2501,2.2498,2.2495,2.2468,2.2483,2.2464,2.2442,2.2461,2.2439,2.2438,2.2424,2.2422,2.2417,2.2418,2.2416,2.2399,2.2399,2.2398,2.2398,0,0,0,0,0,0,0,2.2533,2.2531,2.251,2.2501,2.2497,2.2485,2.2481,2.248,2.2449,2.246,2.2456,2.2452,2.2422,2.2418,2.2416,2.2416,2.2399,2.2399,2.2398,2.2398,2.2427,2.2428,0,0,0,0,0,0,2.2539,2.2532,2.2511,2.2509,2.2511,2.2485,2.2481,2.2478,2.2449,2.2444,2.2453,2.245,2.2419,2.2417,2.2415,2.2433,2.2398,2.2398,2.2398,2.2426,2.2427,2.2428,0,0,0,0,0,0,2.254,2.2538,2.2513,2.252,2.2516,2.2486,2.2483,2.2478,2.2473,2.2445,2.2439,2.2455,2.2418,2.2415,2.2418,2.2431,2.2398,2.2397,2.2425,2.2426,2.2428,2.2472,0,0,0,0,0,0,2.2541,2.2538,2.2546,2.252,2.2515,2.2517,2.2484,2.2478,2.2473,2.2468,2.2444,2.2439,2.2417,2.2419,2.2418,2.243,2.2397,2.2423,2.2425,2.2427,2.2469,2.2474,2.2479,0,0,0,0,0,2.2542,2.256,2.2546,2.2544,2.2524,2.2518,2.2515,2.249,2.2474,2.2481,2.2462,2.244,2.243,2.242,2.2418,2.243,2.2422,2.2425,2.2427,2.2466,2.2473,2.2479,0,0,0,0,0,0,2.2588,2.2556,2.2541,2.2551,2.2538,2.251,2.2518,2.2499,2.2489,2.2486,2.2455,2.245,2.2456,2.2443,2.2432,2.2446,2.2423,2.2425,2.2454,2.246,2.2465,2.2467,2.2397,0,0,0,0,0,2.2599,2.2598,2.257,2.2581,2.2575,2.2548,2.2545,2.2526,2.2511,2.2505,2.2487,2.2473,2.2466,2.2462,2.2455,2.2467,2.246,2.2474,2.248,2.2484,2.2486,2.2489,2.2494,2.2436,2.2436,2.2436,0,0,2.2622,2.2605,2.2606,2.259,2.2577,2.2575,2.2544,2.2544,2.2541,2.2505,2.2506,2.2492,2.2474,2.2481,2.2483,2.2471,2.25,2.2487,2.2491,2.249,2.2492,2.2497,2.2502,2.2438,2.2437,2.2437,0,0,2.2663,2.2651,2.2658,2.2646,2.2627,2.2609,2.2611,2.2586,2.2575,2.2576,2.2548,2.2545,2.2535,2.2522,2.2515,2.255,2.2528,2.2548,2.2575,2.2579,2.2583,2.2587,2.2598,2.2602,2.255,2.2551,2.2551,0,2.2694,2.2691,2.2664,2.2665,2.2658,2.2625,2.2631,2.2621,2.2601,2.2597,2.2583,2.2569,2.2554,2.2557,2.2565,2.2561,2.256,2.255,2.2585,2.2588,2.2592,2.2601,2.2606,2.2553,2.2553,2.2552,2.2552,0,2.2729,2.2727,2.2735,2.2716,2.271,2.2714,2.2687,2.2684,2.2666,2.2649,2.2648,2.263,2.2617,2.2617,2.2599,2.2616,2.2609,2.2591,2.2567,2.26,2.2608,2.2612,2.2556,2.2556,2.2555,2.2554,0,0,2.2798,2.2763,2.2766,2.2757,2.2733,2.2731,2.2732,2.272,2.2717,2.2704,2.2704,2.2695,2.2678,2.2669,2.265,2.2653,2.2679,2.2634,2.2633,2.2642,2.2694,2.2707,2.2712,2.2666,2.2666,2.2667,2.2695,0,2.2833,2.2834,2.2809,2.2817,2.2813,2.2782,2.2783,2.2768,2.2752,2.2746,2.2727,2.2721,2.27,2.2694,2.2696,2.2676,2.2689,2.2674,2.2663,2.2663,2.2667,2.2716,2.273,2.2758,2.2698,2.2699,2.2699,0,2.2874,2.2863,2.287,2.2845,2.2843,2.2844,2.283,2.2825,2.2807,2.2795,2.2785,2.2762,2.2761,2.2739,2.2735,2.2725,2.2719,2.2709,2.2709,2.2706,2.2682,2.2713,2.2766,2.277,2.2705,2.2704,2.2704,0,2.2921,2.2908,2.291,2.2903,2.2874,2.2876,2.2864,2.2845,2.2838,2.2825,2.282,2.2808,2.2801,2.2791,2.2765,2.2752,2.2764,2.274,2.2752,2.2752,2.2755,2.2755,2.2806,2.2754,2.2754,2.2754,2.2754,0,2.2962,2.2967,2.2931,2.2932,2.2936,2.2908,2.2912,2.2897,2.288,2.2877,2.2849,2.2846,2.2813,2.2806,2.2786,2.2785,2.2782,2.2771,2.2765,2.2773,2.2774,2.2767,2.2764,2.2755,2.2755,2.2754,2.2754,0,2.3015,2.2991,2.2991,2.2963,2.2956,2.2961,2.2936,2.2936,2.2917,2.2913,2.2911,2.2882,2.2872,2.2845,2.2829,2.2815,2.2819,2.281,2.2825,2.2821,2.2834,2.2832,2.2882,2.2886,2.2833,2.2833,2.2834,0,2.3042,2.3045,2.3018,2.3014,2.3003,2.2997,2.299,2.2961,2.2955,2.2934,2.2935,2.2923,2.2912,2.2898,2.2874,2.2861,2.285,2.2868,2.2848,2.2854,2.2848,2.2848,2.2847,2.2872,2.2873,2.2874,2.2874,0,2.3092,2.308,2.3071,2.3058,2.3051,2.3039,2.3025,2.3024,2.2991,2.2985,2.2975,2.2967,2.2949,2.2937,2.292,2.2906,2.2884,2.2881,2.2882,2.2889,2.2897,2.2891,2.2836,2.288,2.2879,2.2879,2.2878,2.2878,2.3132,2.3132,2.3113,2.3104,2.309,2.3078,2.3076,2.3057,2.3048,2.3032,2.3015,2.3006,2.2986,2.2961,2.2948,2.294,2.2929,2.2932,2.2932,2.2933,2.2935,2.29,2.2937,2.2937,2.2937,2.2936,2.2936,0,2.3179,2.3164,2.3156,2.3138,2.3131,2.3112,2.3095,2.309,2.3082,2.3066,2.3055,2.3042,2.303,2.3005,2.299,2.2988,2.2978,2.2985,2.2984,2.2981,2.2947,2.2946,2.2994,2.2994,2.2994,2.2994,2.2994,2.2994,2.3202,2.3202,2.3187,2.3179,2.3164,2.3155,2.3147,2.3135,2.3122,2.3109,2.3098,2.3083,2.3062,2.3045,2.3032,2.3025,2.302,2.3031,2.302,2.2989,2.2984,2.2978,2.2977,2.303,2.303,2.3054,2.3054,2.3054]}]]